Location: Unspecified
(47.9110°N, 14.3980°E)
Time: 09:56:55
(UTC+00:00)

Cosmos 1975 Rocket - Pass Details

Date: 06 August 2020
Orbit: 603 x 634 km, 82.5° (Epoch: 20 September)

Event Time Altitude Azimuth Distance (km) Brightness Sun altitude
Rises 23:01:53 0° 355° (N) 2,945 7.9 -25.7°
Reaches altitude 10° 23:04:13 10° 1° (N) 2,032 6.7 -25.7°
Enters shadow 23:08:31 48° 73° (ENE) 837 3.7 -25.7°
